TimeCST,TemperatureF,Dew PointF,Humidity,Sea Level PressureIn,VisibilityMPH,Wind Direction,Wind SpeedMPH,Gust SpeedMPH,PrecipitationIn,Events,Conditions,WindDirDegrees,DateUTC
12:37 AM,57.2,53.6,88,29.82,10.0,South,4.6,-,N/A,,Overcast,190,2013-12-03 06:37:00
12:56 AM,57.0,54.0,89,29.81,10.0,South,5.8,-,N/A,,Overcast,190,2013-12-03 06:56:00
1:56 AM,57.0,55.0,93,29.80,10.0,Calm,Calm,-,N/A,,Overcast,0,2013-12-03 07:56:00
2:27 AM,57.2,55.4,94,29.80,10.0,South,4.6,-,N/A,,Mostly Cloudy,190,2013-12-03 08:27:00
2:56 AM,57.0,55.0,93,29.79,10.0,South,3.5,-,N/A,,Mostly Cloudy,190,2013-12-03 08:56:00
3:14 AM,57.2,55.4,94,29.80,10.0,South,4.6,-,N/A,,Overcast,180,2013-12-03 09:14:00
3:56 AM,57.0,55.0,93,29.79,10.0,South,4.6,-,N/A,,Overcast,180,2013-12-03 09:56:00
4:34 AM,57.2,55.4,94,29.80,9.0,South,3.5,-,0.00,Rain,Light Rain,170,2013-12-03 10:34:00
4:45 AM,57.2,55.4,94,29.80,4.0,Calm,Calm,-,0.03,Rain,Light Rain,0,2013-12-03 10:45:00
4:56 AM,57.9,55.9,93,29.80,8.0,NNW,5.8,-,0.03,,Overcast,340,2013-12-03 10:56:00
5:10 AM,57.2,55.4,94,29.80,7.0,Variable,4.6,-,N/A,,Overcast,0,2013-12-03 11:10:00
5:56 AM,59.0,57.0,93,29.81,6.0,SSW,4.6,-,N/A,,Overcast,200,2013-12-03 11:56:00
6:56 AM,59.0,57.9,96,29.82,5.0,SSW,5.8,-,N/A,,Overcast,210,2013-12-03 12:56:00
7:23 AM,60.8,57.2,88,29.83,5.0,South,4.6,-,N/A,,Mostly Cloudy,190,2013-12-03 13:23:00
7:39 AM,60.8,57.2,88,29.84,6.0,South,3.5,-,N/A,,Overcast,180,2013-12-03 13:39:00
7:56 AM,61.0,59.0,93,29.83,7.0,South,3.5,-,N/A,,Overcast,170,2013-12-03 13:56:00
8:11 AM,60.8,59.0,94,29.84,10.0,South,4.6,-,N/A,,Overcast,170,2013-12-03 14:11:00
8:43 AM,60.8,59.0,94,29.85,1.8,Calm,Calm,-,0.07,Rain,Heavy Rain,0,2013-12-03 14:43:00
8:56 AM,62.1,60.1,93,29.85,2.0,Calm,Calm,-,0.14,Rain,Heavy Rain,0,2013-12-03 14:56:00
9:10 AM,-9999,-9999,N/A,-9999,1.5,Calm,Calm,-,N/A,Rain,Heavy Rain,0,2013-12-03 15:10:00
9:16 AM,62.6,60.8,94,29.86,3.0,Calm,Calm,-,0.09,Rain,Light Rain,0,2013-12-03 15:16:00
9:26 AM,62.6,60.8,94,29.86,2.0,Calm,Calm,-,0.11,Rain,Rain,0,2013-12-03 15:26:00
9:36 AM,62.6,60.8,94,29.86,9.0,Calm,Calm,-,0.11,Rain,Light Rain,0,2013-12-03 15:36:00
9:56 AM,63.0,61.0,93,29.86,10.0,Calm,Calm,-,0.12,,Overcast,0,2013-12-03 15:56:00
10:15 AM,62.6,62.6,100,29.87,1.8,SW,3.5,-,0.03,Rain,Rain,220,2013-12-03 16:15:00
10:20 AM,62.6,62.6,100,29.86,2.0,Calm,Calm,-,0.04,Rain,Heavy Rain,0,2013-12-03 16:20:00
10:28 AM,62.6,62.6,100,29.86,2.0,Calm,Calm,-,0.07,Rain,Heavy Rain,0,2013-12-03 16:28:00
10:39 AM,64.4,62.6,94,29.86,1.8,SW,4.6,-,0.11,Rain,Heavy Rain,220,2013-12-03 16:39:00
10:56 AM,63.0,62.1,97,29.83,2.5,SSE,4.6,-,0.17,Rain,Rain,160,2013-12-03 16:56:00
11:03 AM,62.6,62.6,100,29.84,6.0,South,3.5,-,0.00,Rain,Light Rain,180,2013-12-03 17:03:00
11:21 AM,64.4,62.6,94,29.84,5.0,SSW,4.6,-,0.03,Rain,Light Rain,210,2013-12-03 17:21:00
11:39 AM,64.4,62.6,94,29.83,10.0,West,3.5,-,0.03,,Overcast,260,2013-12-03 17:39:00
11:56 AM,66.0,63.0,90,29.82,10.0,West,5.8,-,0.03,,Overcast,280,2013-12-03 17:56:00
12:14 PM,66.2,64.4,94,29.81,10.0,South,5.8,-,N/A,,Overcast,190,2013-12-03 18:14:00
12:56 PM,71.1,64.9,81,29.78,8.0,SSW,3.5,-,0.01,Rain,Light Rain,210,2013-12-03 18:56:00
1:56 PM,72.0,62.1,71,29.77,10.0,SW,6.9,-,0.00,,Overcast,230,2013-12-03 19:56:00
2:56 PM,73.0,62.1,68,29.76,10.0,SW,3.5,-,N/A,,Mostly Cloudy,220,2013-12-03 20:56:00
3:56 PM,71.1,61.0,70,29.77,10.0,SSW,3.5,-,N/A,,Overcast,200,2013-12-03 21:56:00
4:56 PM,70.0,59.0,68,29.80,10.0,SW,4.6,-,N/A,,Overcast,220,2013-12-03 22:56:00
5:56 PM,68.0,60.1,76,29.80,10.0,South,4.6,-,N/A,,Overcast,170,2013-12-03 23:56:00
6:56 PM,66.0,59.0,78,29.82,10.0,South,5.8,-,N/A,,Scattered Clouds,190,2013-12-04 00:56:00
7:56 PM,66.9,60.1,79,29.83,10.0,South,4.6,-,N/A,,Overcast,180,2013-12-04 01:56:00
8:41 PM,66.2,60.8,83,29.85,10.0,South,4.6,-,N/A,,Mostly Cloudy,180,2013-12-04 02:41:00
8:56 PM,66.0,61.0,84,29.84,10.0,South,5.8,-,N/A,,Overcast,170,2013-12-04 02:56:00
9:56 PM,64.9,63.0,93,29.85,10.0,South,5.8,-,N/A,,Overcast,180,2013-12-04 03:56:00
10:06 PM,66.2,62.6,88,29.86,10.0,South,3.5,-,N/A,,Overcast,180,2013-12-04 04:06:00
10:16 PM,66.2,62.6,88,29.86,10.0,South,4.6,-,N/A,,Overcast,180,2013-12-04 04:16:00
10:45 PM,66.2,62.6,88,29.87,10.0,South,5.8,-,N/A,,Overcast,190,2013-12-04 04:45:00
10:56 PM,66.0,63.0,90,29.86,10.0,South,5.8,-,N/A,,Overcast,190,2013-12-04 04:56:00
11:56 PM,66.9,64.0,90,29.87,10.0,SSW,8.1,-,N/A,,Overcast,210,2013-12-04 05:56:00